Flag for Germany Weather past 2 weeks in Erlangen, Bavaria, Germany

Now
46 °F

Partly cloudy.


Feels Like: 39 °F
Forecast: 33 / 43 °F
Wind: 20 mph from West

Location: Nuernberg

Current Time: Dec 23, 2014 at 6:39:08 AM

Latest Report: Dec 23, 2014 at 6:20 AM


Visibility: N/A

Pressure: 30.21 "Hg

Humidity: 82%

Dew point: 41 °F

Location of ErlangenLocation

Historic Weather in Erlangen — Graph

°F

Erlangen temperature yesterday

Maximum temperature yesterday: 46 °F (at 9:50 PM)
Minimum temperature yesterday: 41 °F (at 12:50 AM)
Average temperature yesterday: 44 °F

Past Weeks' High & Low Weather Summary

 TemperatureHumidityPressure
High54 °F (Dec 18, 9:20 PM)100% (Dec 8, 5:20 AM)30.45 "Hg (Dec 8, 5:20 AM)
Low23 °F (Dec 9, 3:50 AM)58% (Dec 13, 12:20 PM)29.71 "Hg (Dec 12, 3:50 PM)
Average41 °F89%30.05 "Hg
* Reported Dec 8 5:20 AM — Dec 23 5:20 AM, Erlangen, Weather by CustomWeather, © 2014

Note: Actual official high and low records may vary slightly from our data, if they occured in-between our weather recording intervals... More about our weather records

Advertising

Erlangen weather history for previous 24 hours

 ConditionsComfort  
Time TempWeatherWind HumidityBarometerVisibility
5:20 AM
Dec 23
46 °FPassing clouds.17 mph82%30.21 "HgN/A
4:50 AM46 °FPassing clouds.14 mph82%30.21 "HgN/A
4:20 AM46 °FPassing clouds.14 mph82%30.21 "HgN/A
3:50 AM46 °FPassing clouds.14 mph82%30.21 "HgN/A
3:20 AM46 °FPartly cloudy.15 mph82%30.21 "HgN/A
2:50 AM46 °FPartly cloudy.20 mph82%30.21 "HgN/A
2:20 AM46 °FOvercast.21 mph82%30.21 "HgN/A
1:50 AM46 °FOvercast.22 mph82%30.21 "HgN/A
1:20 AM46 °FOvercast.21 mph82%30.21 "HgN/A
12:50 AM46 °FOvercast.21 mph82%30.21 "HgN/A
12:20 AM46 °FOvercast.17 mph82%30.21 "HgN/A
11:20 PM
Dec 22
46 °FPassing clouds.17 mph82%30.21 "HgN/A
10:50 PM46 °FPassing clouds.14 mph82%30.21 "HgN/A
10:20 PM46 °FPassing clouds.17 mph82%30.21 "HgN/A
9:50 PM46 °FPassing clouds.15 mph82%30.21 "HgN/A
9:20 PM45 °FPassing clouds.18 mph87%30.21 "HgN/A
8:50 PM45 °FPassing clouds.21 mph81%30.21 "HgN/A
8:20 PM45 °FPassing clouds.18 mph81%30.21 "HgN/A
7:50 PM45 °FPassing clouds.16 mph81%30.21 "HgN/A
7:20 PM45 °FPassing clouds.20 mph81%30.21 "HgN/A
6:50 PM45 °FPassing clouds.10 mph81%30.21 "HgN/A
6:20 PM45 °FPassing clouds.10 mph76%30.21 "HgN/A
5:50 PM45 °FPassing clouds.13 mph76%30.18 "HgN/A
5:20 PM45 °FPassing clouds.14 mph76%30.18 "HgN/A
4:50 PM45 °FPartly cloudy.13 mph76%30.18 "HgN/A
4:20 PM45 °FPartly cloudy.10 mph81%30.18 "HgN/A
3:50 PM45 °FBroken clouds.9 mph76%30.18 "HgN/A
3:20 PM45 °FPartly sunny.10 mph81%30.18 "HgN/A
2:50 PM45 °FPartly sunny.14 mph81%30.18 "HgN/A
2:20 PM45 °FPartly sunny.10 mph81%30.18 "HgN/A
1:50 PM45 °FPartly sunny.13 mph81%30.18 "HgN/A
1:20 PM45 °FOvercast.14 mph81%30.21 "HgN/A
12:50 PM45 °FOvercast.15 mph81%30.21 "HgN/A
12:20 PM45 °FOvercast.15 mph76%30.21 "HgN/A
11:50 AM45 °FOvercast.13 mph76%30.24 "HgN/A
11:20 AM45 °FOvercast.14 mph76%30.24 "HgN/A
10:50 AM45 °FOvercast.13 mph76%30.24 "HgN/A
10:20 AM45 °FOvercast.12 mph76%30.27 "HgN/A
9:50 AM43 °FOvercast.15 mph81%30.24 "HgN/A
9:20 AM43 °FOvercast.14 mph81%30.24 "HgN/A
8:50 AM43 °FOvercast.14 mph81%30.24 "HgN/A
8:20 AM43 °FOvercast.14 mph81%30.27 "HgN/A
7:50 AM43 °FOvercast.15 mph76%30.27 "HgN/A
7:20 AM43 °FOvercast.17 mph76%30.24 "HgN/A
6:50 AM43 °FOvercast.15 mph76%30.24 "HgN/A
6:20 AM43 °FPassing clouds.15 mph76%30.24 "HgN/A
Weather by CustomWeather, © 2014

See weather overviewHow to use our weather pages